Skip Page Navigation
NASA JPL Caltech
NASA Logo - Jet Propulsion Laboratory + View the NASA Portal
+ Near-Earth Object (NEO) Program
Search JPL
JPL Home Earth Solar System Stars & Galaxies Technology
JPL Solar System Dynamics
BODIES ORBITS EPHEMERIDES TOOLS PHYSICAL DATA DISCOVERY FAQ SITE MAP
JPL Small-Body Database Browser
Search: [ help ]  
21018 (1988 VV1)
Classification: Main-belt Asteroid          SPK-ID: 2021018
Ephemeris | Orbit Diagram | Orbital Elements | Physical Parameters | Discovery Circumstances | Close-Approach Data ]

[ show orbit diagram ]
Orbital Elements at Epoch 2457000.5 (2014-Dec-09.0) TDB
Reference: JPL 9 (heliocentric ecliptic J2000)
 Element Value Uncertainty (1-sigma)   Units 
e .2512215832679988 7.5059e-08  
a 2.918458670786761 3.7239e-08 AU
q 2.185278862809492 2.2035e-07 AU
i 12.51681781783822 8.2545e-06 deg
node 302.5384825493702 4.2282e-05 deg
peri 356.5613233744876 4.7153e-05 deg
M 150.0806266087616 2.5029e-05 deg
tp 2456241.309296059307
(2012-Nov-09.80929606)
0.00012482 JED
period 1821.078840049925
4.99
3.4855e-05
9.543e-08
d
yr
n .1976850162017865 3.7837e-09 deg/d
Q 3.651638478764029 4.6595e-08 AU
  Orbit Determination Parameters
   # obs. used (total)      745  
   data-arc span      22360 days (61.22 yr)  
   first obs. used      1953-10-12  
   last obs. used      2014-12-31  
   planetary ephem.      DE431  
   SB-pert. ephem.      SB431-BIG16  
   condition code      0  
   fit RMS      .43179  
   data source      ORB  
   producer      Otto Matic  
   solution date      2015-Jan-08 02:48:41  

Additional Information
 Earth MOID = 1.17091 AU 
 T_jup = 3.198 
[ show covariance matrix ]

Ephemeris | Orbit Diagram | Orbital Elements | Physical Parameters | Discovery Circumstances | Close-Approach Data ]

Physical Parameter Table
Parameter Symbol Value Units Sigma Reference Notes
absolute magnitude H 12.8 mag n/a MPO319347  
diameter diameter 13.32 km 2.0 IRAS-A-FPA-3-RDR-IMPS-V6.0 IRAS observations used: 5
geometric albedo albedo 0.0908   0.034 IRAS-A-FPA-3-RDR-IMPS-V6.0 IRAS observations used: 5

21018 (1988 VV1)          Discovered 1988-Nov-02 by Oshima, Y. at Gekko (888)
Reference: 20010208/Numbers.arcLast Updated: 2004-04-19

[ show close-approach data ]
Alternate Designations
 1988 VV1 = 2000 AL9 
Ephemeris | Orbit Diagram | Orbital Elements | Physical Parameters | Discovery Circumstances | Close-Approach Data ]
ABOUT SSD CREDITS/AWARDS PRIVACY/COPYRIGHT GLOSSARY LINKS
FirstGov 2015-Jan-27 21:01 UT
(server date/time)  
NASA Home Page
Site Manager:   Donald K. Yeomans
Webmaster  Alan B. Chamberlin